Terug naar catalogus

DELTA 1 DEB

ActiefLEO
NORAD 14564·DEBRIS·🇺🇸 United States

Gelanceerd Jul 14, 1977 vanaf Cape Canaveral Space Force Station

Loading…

Volgende Passages (komende 24 uur)

TLE

VersSource: Space-Track

Epoch: Sep 13, 2026, 23:59 UTC

1 14564U 77065FS  26256.99975274  .00002612  00000-0  20683-2 0  9990
2 14564  28.7004 147.4959 0736323 183.0922 176.4876 13.04697353 82809

Volg DELTA 1 DEB in realtime met AllMySat

Download on the App Store